1536418800.22,14474,18.25,74304.8,4.57,4.15,4.23,0,*7C
1536418801.39,14475,18.25,74304.3,4.57,4.15,4.23,0,*7D
1536418802.6,14476,18.25,74306.3,4.55,4.11,4.07,0,*7E
1536418803.81,14477,18.25,74300.8,4.55,4.07,4.07,0,*78
1536418804.99,14478,18.25,74302.5,4.57,4.37,4.45,0,*70
1536418806.16,14479,18.25,74302.8,4.57,4.49,4.49,0,*74
1536418807.33,14480,18.25,74300.0,4.57,4.45,4.49,0,*7E
1536418808.5,14481,18.25,74302.5,4.57,4.49,4.57,0,*7C
1536418809.68,14482,18.25,74304.8,4.57,4.45,4.57,0,*73
1536418810.88,14483,18.25,74302.8,4.55,4.41,4.45,0,*77
1536418812.09,14484,18.25,74304.0,4.55,4.45,4.45,0,*74
1536418813.26,14485,18.25,74304.3,4.57,4.45,4.45,0,*77
1536418814.49,14486,18.25,74304.5,4.57,4.01,4.05,0,*70
1536418815.66,14487,18.25,74300.5,4.57,4.27,4.27,0,*75
1536418816.84,14488,18.25,74298.8,4.57,4.33,4.37,0,*7E
1536418818.02,14489,18.25,74298.0,4.57,4.37,4.49,0,*72
1536418819.2,14490,18.25,74304.5,4.61,4.45,4.45,0,*76
1536418820.37,14491,18.25,74302.3,4.57,4.23,4.27,0,*76
1536418821.56,14492,18.25,74300.5,4.57,4.37,4.37,0,*71
1536418822.73,14493,18.25,74302.3,4.57,4.49,4.49,0,*70
1536418823.9,14494,18.25,74304.8,4.61,4.49,4.57,0,*7D
1536418825.08,14495,18.25,74306.0,4.57,4.45,4.45,0,*76
1536418826.26,14496,18.25,74300.8,4.61,4.37,4.45,0,*75
1536418827.45,14497,18.25,74300.8,4.57,4.27,4.33,0,*71
1536418828.61,14498,18.25,74304.5,4.57,4.49,4.49,0,*7B
1536418829.79,14499,18.25,74304.3,4.61,4.49,4.49,0,*7F
1536418830.97,14500,18.25,74306.5,4.61,4.45,4.45,0,*7E
1536418832.14,14501,18.25,74310.0,4.57,4.45,4.45,0,*7A
1536418833.31,14502,18.25,74306.8,4.57,4.49,4.45,0,*75
1536418834.5,14503,18.25,74304.5,4.61,4.33,4.37,0,*79
1536418835.73,14504,18.25,74306.3,4.57,4.05,4.05,0,*7F
1536418836.91,14505,18.25,74306.0,4.61,4.15,4.23,0,*7E
1536418838.1,14506,18.25,74304.3,4.61,4.33,4.37,0,*7C
1536418839.28,14507,18.25,74306.5,4.61,4.37,4.45,0,*7C
1536418840.46,14508,18.25,74306.5,4.61,4.49,4.49,0,*76
1536418841.66,14509,18.25,74306.0,4.61,4.49,4.59,0,*76
1536418842.83,14510,18.25,74306.3,4.61,4.49,4.57,0,*70
1536418844.01,14511,18.25,74306.0,4.61,4.15,4.15,0,*7E
1536418845.19,14512,18.25,74304.5,4.61,4.27,4.27,0,*7D
1536418846.37,14513,18.25,74306.8,4.61,4.23,4.15,0,*79
1536418847.55,14514,18.25,74306.8,4.61,4.15,4.27,0,*7A
1536418848.78,14515,18.25,74306.5,4.61,4.05,4.05,0,*7A
1536418849.96,14516,18.25,74304.3,4.57,4.15,4.23,0,*79
1536418851.15,14517,18.25,74304.8,4.61,4.23,4.33,0,*79
1536418852.33,14518,18.25,74300.8,4.61,4.33,4.33,0,*77
1536418853.52,14519,18.25,74302.5,4.61,3.93,3.93,0,*76
1536418854.74,14520,18.25,74306.5,4.57,4.01,4.05,0,*7D
1536418855.92,14521,18.25,74304.8,4.61,4.15,4.15,0,*7D
1536418857.1,14522,18.25,74308.0,4.57,4.27,4.27,0,*7B
1536418858.28,14523,18.25,74306.8,4.61,4.37,4.45,0,*7A
1536418859.47,14524,18.25,74304.3,4.61,4.33,4.33,0,*78
1536418860.66,14525,18.25,74304.8,4.61,4.33,4.37,0,*7D
1536418861.84,14526,18.25,74304.5,4.61,4.37,4.49,0,*73
1536418863.02,14527,18.25,74306.0,4.57,4.33,4.33,0,*7E
1536418864.19,14528,18.25,74304.8,4.57,4.27,4.27,0,*71
1536418865.38,14529,18.25,74306.0,4.57,4.37,4.37,0,*70
1536418866.55,14530,18.25,74304.3,4.61,4.45,4.49,0,*71
1536418867.73,14531,18.25,74304.5,4.61,4.45,4.49,0,*70
1536418868.91,14532,18.25,74310.8,4.61,4.49,4.57,0,*70
1536418870.09,14533,18.25,74306.5,4.61,4.57,4.57,0,*7E
1536418871.27,14534,18.25,74310.8,4.57,4.15,4.23,0,*79
1536418872.45,14535,18.25,74306.0,4.61,4.15,4.11,0,*7C
1536418873.65,14536,18.25,74304.5,4.61,4.05,4.11,0,*7E
1536418874.83,14537,18.25,74306.5,4.57,4.15,4.23,0,*7A
1536418876.0,14538,18.25,74306.3,4.61,4.23,4.27,0,*71
1536418877.19,14539,18.25,74304.5,4.61,4.27,4.33,0,*71
1536418878.37,14540,18.25,74304.8,4.57,4.33,4.45,0,*7E
1536418879.55,14541,18.25,74308.5,4.57,4.33,4.37,0,*7A
1536418880.74,14542,18.25,74308.0,4.61,4.37,4.37,0,*78
1536418881.92,14543,18.25,74310.0,4.61,4.11,4.15,0,*7D
1536418883.1,14544,18.25,74306.8,4.61,4.11,4.11,0,*7E
1536418884.28,14545,18.25,74308.8,4.61,4.23,4.27,0,*7B
1536418885.46,14546,18.25,74310.8,4.61,4.23,4.33,0,*7D
1536418886.65,14547,18.25,74308.5,4.61,4.23,4.33,0,*7C
1536418887.82,14548,18.25,74312.5,4.57,4.11,4.11,0,*77
1536418889.05,14549,18.25,74308.0,4.57,4.01,4.05,0,*72
1536418890.28,14550,18.25,74306.3,4.61,3.75,3.79,0,*77
1536418891.46,14551,18.25,74308.8,4.61,3.63,3.63,0,*7A
1536418892.67,14552,18.25,74308.3,4.57,3.53,3.53,0,*7C
1536418893.93,14553,18.25,74308.3,4.55,3.75,3.75,0,*7F
1536418895.16,14554,18.25,74306.3,4.55,4.01,4.07,0,*7E
1536418896.39,14555,18.25,74306.0,4.55,4.23,4.31,0,*7A
1536418897.57,14556,18.25,74308.3,4.57,4.33,4.37,0,*7C
1536418898.75,14557,18.25,74308.3,4.57,4.37,4.49,0,*70
1536418899.93,14558,18.25,74306.8,4.57,4.45,4.45,0,*76
1536418901.11,14559,18.25,74310.5,4.57,4.37,4.45,0,*72
1536418902.31,14560,18.25,74306.8,4.57,4.05,4.11,0,*78
1536418903.49,14561,18.25,74306.5,4.57,3.89,3.93,0,*77
1536418904.7,14562,18.25,74306.3,4.57,3.93,4.05,0,*77
1536418905.93,14563,18.25,74310.0,4.57,4.05,4.05,0,*7E
1536418907.11,14564,18.25,74306.8,4.57,4.11,4.15,0,*7D
1536418908.28,14565,18.25,74308.8,4.57,4.27,4.27,0,*78
1536418909.46,14566,18.25,74312.8,4.57,4.33,4.33,0,*7B
1536418910.7,14567,18.25,74308.3,4.55,4.31,4.41,0,*7F
1536418911.88,14568,18.25,74308.8,4.57,4.37,4.49,0,*7C
1536418913.04,14569,18.25,74308.3,4.57,4.49,4.49,0,*74
1536418914.22,14570,18.25,74308.5,4.57,4.27,4.33,0,*79
1536418915.41,14571,18.25,74310.5,4.57,4.33,4.37,0,*79
1536418916.58,14572,18.25,74308.3,4.57,4.49,4.49,0,*7E
1536418917.75,14573,18.25,74312.5,4.61,4.49,4.49,0,*7A
1536418918.93,14574,18.25,74314.3,4.61,4.23,4.27,0,*79
1536418920.1,14575,18.25,74314.0,4.57,4.27,4.27,0,*79
1536418921.27,14576,18.25,74314.0,4.57,4.27,4.23,0,*7E
1536418922.46,14577,18.25,74312.8,4.57,4.37,4.45,0,*7E
1536418923.63,14578,18.25,74314.5,4.57,4.11,4.15,0,*70
1536418924.82,14579,18.25,74308.5,4.57,3.89,3.93,0,*7E
1536418926.0,14580,18.25,74310.3,4.57,3.93,3.93,0,*73
1536418927.2,14581,18.25,74310.3,4.57,3.79,3.85,0,*71
1536418928.37,14582,18.25,74310.8,4.57,3.85,3.85,0,*71
1536418929.63,14583,18.25,74306.8,4.55,3.71,3.71,0,*72
1536418930.83,14584,18.25,74306.5,4.55,3.59,3.59,0,*75
1536418932.03,14585,18.25,74302.0,4.53,3.11,2.99,0,*73
1536418933.27,14586,18.25,74296.0,4.53,2.51,2.51,0,*71
1536418934.47,14587,18.25,74296.5,4.51,2.95,2.95,0,*72
1536418935.68,14588,18.25,74300.3,4.49,3.29,3.33,0,*7F
1536418936.87,14589,18.25,74304.5,4.51,3.55,3.59,0,*70
1536418938.11,14590,18.25,74300.8,4.49,3.75,3.75,0,*7D
1536418939.29,14591,18.25,74306.5,4.49,3.81,3.81,0,*7C
1536418940.47,14592,18.25,74306.5,4.49,3.93,3.93,0,*7F
1536418941.7,14593,18.25,74306.3,4.49,3.79,3.79,0,*7E
1536418942.94,14594,18.25,74310.5,4.49,3.75,3.75,0,*79
1536418944.13,14595,18.25,74308.0,4.49,3.93,3.93,0,*78
1536418945.31,14596,18.25,74310.3,4.49,3.93,3.93,0,*7B
1536418946.49,14597,18.25,74312.3,4.49,3.81,3.81,0,*7A
1536418947.7,14598,18.25,74314.3,4.49,3.93,4.05,0,*7D
1536418948.89,14599,18.25,74310.8,4.49,3.93,3.93,0,*74
1536418950.07,14600,18.25,74308.0,4.49,3.81,3.81,0,*77
1536418951.3,14601,18.25,74304.3,4.49,3.67,3.75,0,*75
1536418952.49,14602,18.25,74302.0,4.49,3.93,3.93,0,*75
1536418953.7,14603,18.25,74300.8,4.51,3.93,3.93,0,*7D
1536418954.88,14604,18.25,74308.3,4.49,3.93,3.89,0,*78
1536418956.09,14605,18.25,74312.5,4.47,3.93,3.93,0,*7C
1536418957.34,14606,18.25,74312.0,4.47,4.01,4.05,0,*7B
1536418958.6,14607,18.25,74310.8,4.47,3.75,3.79,0,*72
1536418959.85,14608,18.25,74312.5,4.47,3.79,3.79,0,*71
1536418961.08,14609,18.25,74310.0,4.45,3.75,3.79,0,*7E
1536418962.32,14610,18.25,74308.0,4.47,3.79,3.81,0,*7F
1536418963.52,14611,18.25,74304.0,4.49,3.93,4.01,0,*7B
1536418964.7,14612,18.25,74302.8,4.45,3.93,3.93,0,*78
1536418965.91,14613,18.25,74304.3,4.47,3.93,3.93,0,*7B
1536418967.12,14614,18.25,74302.0,4.47,3.93,3.89,0,*77
1536418968.33,14615,18.25,74298.0,4.47,3.89,3.93,0,*76
1536418969.58,14616,18.25,74304.5,4.47,3.79,3.79,0,*7E
1536418970.84,14617,18.25,74302.5,4.47,3.79,3.79,0,*7F
1536418972.05,14618,18.25,74304.3,4.47,3.89,3.93,0,*7B
1536418973.26,14619,18.25,74304.8,4.47,3.93,3.93,0,*71
1536418974.51,14620,18.25,74308.3,4.47,4.01,4.05,0,*7F
1536418975.69,14621,18.25,74304.8,4.45,3.81,3.81,0,*78
1536418976.9,14622,18.25,74302.5,4.47,3.93,3.93,0,*79
1536418978.1,14623,18.25,74306.3,4.47,3.81,3.81,0,*78
1536418979.31,14624,18.25,74306.0,4.47,3.81,3.89,0,*77
1536418980.51,14625,18.25,74306.8,4.47,3.63,3.63,0,*7E
1536418981.74,14626,18.25,74308.3,4.45,3.71,3.79,0,*77
1536418982.94,14627,18.25,74310.0,4.45,3.89,3.97,0,*71
1536418984.2,14628,18.25,74310.5,4.47,3.79,3.75,0,*7F
1536418985.4,14629,18.25,74306.3,4.45,3.79,3.85,0,*73
1536418986.6,14630,18.25,74296.8,4.45,3.79,3.89,0,*77
1536418987.81,14631,18.25,74300.0,4.45,3.89,4.01,0,*7E
1536418989.02,14632,18.25,74304.0,4.47,3.89,3.89,0,*78
1536418990.25,14633,18.25,74310.8,4.45,3.75,3.79,0,*77
1536418991.48,14634,18.25,74312.5,4.45,3.75,3.71,0,*78
1536418992.71,14635,18.25,74310.3,4.45,3.71,3.71,0,*7D
1536418993.94,14636,18.25,74308.8,4.45,3.79,3.79,0,*7E
1536418995.14,14637,18.25,74310.8,4.45,3.75,3.85,0,*70
1536418996.34,14638,18.25,74310.8,4.45,3.85,3.97,0,*73
1536418997.57,14639,18.25,74314.8,4.45,3.97,4.01,0,*79
1536418998.79,14640,18.25,74308.5,4.45,3.79,3.79,0,*7F
1536419000.03,14641,18.25,74306.0,4.45,3.75,3.71,0,*7A
1536419001.23,14642,18.25,74308.0,4.45,3.75,3.85,0,*72
1536419002.41,14643,18.25,74302.8,4.45,3.85,3.89,0,*70
1536419003.6,14644,18.25,74306.0,4.45,3.89,3.89,0,*7B
1536419004.82,14645,18.25,74304.8,4.43,3.85,3.97,0,*7F
1536419006.02,14646,18.25,74300.5,4.45,3.89,3.97,0,*76
1536419007.25,14647,18.25,74300.5,4.43,3.89,4.01,0,*79
1536419008.47,14648,18.25,74302.0,4.43,4.01,4.07,0,*77
1536419009.72,14649,18.25,74308.0,4.43,4.01,4.01,0,*70
1536419010.96,14650,18.25,74306.3,4.43,4.01,3.97,0,*70
1536419012.18,14651,18.25,74310.3,4.45,3.97,3.97,0,*7F
1536419013.42,14652,18.25,74308.3,4.45,3.75,3.75,0,*7C
1536419014.67,14653,18.25,74306.0,4.43,3.71,3.71,0,*7B
1536419015.9,14654,18.25,74306.3,4.43,3.37,3.29,0,*73
1536419017.12,14655,18.25,74304.0,4.41,3.45,3.45,0,*7F
1536419018.36,14656,18.31,74308.5,4.41,3.67,3.67,0,*7C
1536419019.59,14657,18.25,74308.5,4.41,3.67,3.67,0,*7D
1536419020.83,14658,18.25,74310.5,4.43,4.01,3.97,0,*78
1536419022.04,14659,18.31,74312.8,4.41,3.93,4.05,0,*7B
1536419023.24,14660,18.25,74310.5,4.41,4.05,4.07,0,*7B
1536419024.43,14661,18.25,74310.8,4.41,3.93,3.93,0,*78
1536419025.67,14662,18.25,74308.8,4.43,4.01,4.01,0,*79
1536419026.88,14663,18.25,74310.0,4.41,4.05,4.07,0,*78
1536419028.12,14664,18.25,74310.0,4.43,4.01,4.01,0,*7F
1536419029.3,14665,18.25,74308.0,4.45,3.85,3.85,0,*78
1536419030.55,14666,18.25,74310.8,4.43,3.75,3.75,0,*7D
1536419031.8,14667,18.31,74308.3,4.43,3.79,3.79,0,*7C
1536419033.0,14668,18.25,74304.3,4.41,3.85,3.97,0,*72
1536419034.2,14669,18.25,74304.8,4.43,4.07,4.11,0,*75
1536419035.43,14670,18.25,74304.5,4.43,3.89,3.97,0,*75
1536419036.6,14671,18.25,74304.0,4.41,3.85,3.85,0,*79
1536419037.83,14672,18.25,74306.8,4.41,3.97,4.05,0,*76
1536419039.03,14673,18.25,74304.8,4.41,4.05,4.07,0,*79
1536419040.23,14674,18.25,74306.3,4.43,4.11,4.19,0,*76
1536419041.44,14675,18.25,74302.8,4.43,4.07,4.07,0,*7F
1536419042.67,14676,18.25,74304.3,4.41,3.75,3.71,0,*7A
1536419043.92,14677,18.31,74304.5,4.43,3.75,3.79,0,*71
1536419045.1,14678,18.25,74304.0,4.41,3.85,3.93,0,*77
1536419046.33,14679,18.25,74302.8,4.41,3.97,4.05,0,*7D
1536419047.51,14680,18.25,74298.5,4.41,3.93,3.93,0,*77
1536419048.74,14681,18.25,74302.0,4.43,3.89,4.01,0,*73
1536419049.96,14682,18.25,74302.5,4.41,3.97,3.97,0,*75
1536419051.18,14683,18.25,74304.3,4.43,4.01,4.07,0,*70
1536419052.36,14684,18.25,74304.5,4.41,4.07,4.15,0,*70
1536419053.56,14685,18.25,74304.5,4.43,4.07,4.11,0,*77
1536419054.74,14686,18.25,74312.8,4.41,3.93,3.93,0,*71
1536419055.99,14687,18.25,74312.5,4.43,3.97,4.01,0,*7A
1536419057.21,14688,18.25,74312.0,4.43,3.63,3.75,0,*7A
1536419058.47,14689,18.25,74310.3,4.43,3.75,3.75,0,*7C
1536419059.7,14690,18.31,74310.3,4.41,3.71,3.75,0,*72
1536419060.88,14691,18.25,74310.0,4.41,3.81,3.81,0,*77
1536419062.05,14692,18.25,74312.5,4.41,3.85,3.85,0,*74
1536419063.23,14693,18.25,74310.5,4.41,3.81,3.93,0,*76
1536419064.46,14694,18.25,74308.8,4.41,3.67,3.67,0,*72
1536419065.69,14695,18.25,74306.8,4.41,3.67,3.71,0,*74
1536419066.87,14696,18.25,74306.3,4.41,3.85,3.85,0,*70
1536419068.07,14697,18.25,74302.5,4.39,3.93,3.93,0,*7E
1536419069.3,14698,18.31,74306.0,4.41,3.97,4.05,0,*72
1536419070.48,14699,18.25,74304.3,4.41,3.85,3.93,0,*78
1536419071.65,14700,18.25,74308.8,4.41,3.85,3.85,0,*7E
1536419072.83,14701,18.25,74308.5,4.41,3.85,3.93,0,*78
1536419074.07,14702,18.25,74310.0,4.43,4.01,4.01,0,*7E
1536419075.25,14703,18.31,74312.8,4.41,4.07,4.07,0,*7D
1536419076.46,14704,18.31,74314.0,4.41,3.81,3.75,0,*71
1536419077.69,14705,18.25,74312.3,4.41,3.75,3.75,0,*7B
1536419078.86,14706,18.25,74312.5,4.41,3.85,3.85,0,*78
1536419080.07,14707,18.25,74314.5,4.41,3.97,4.07,0,*77
1536419081.24,14708,18.25,74316.0,4.41,3.81,3.93,0,*75
1536419082.41,14709,18.25,74308.5,4.41,3.55,3.55,0,*77
1536419083.61,14710,18.25,74308.5,4.39,3.63,3.55,0,*75
1536419084.81,14711,18.25,74308.0,4.39,3.81,3.81,0,*71
1536419086.01,14712,18.25,74310.5,4.39,3.81,3.93,0,*71
1536419087.21,14713,18.25,74314.8,4.39,3.55,3.55,0,*73
1536419088.43,14714,18.25,74312.3,4.41,3.37,3.37,0,*7B
1536419089.67,14715,18.31,74310.0,4.39,3.53,3.53,0,*75
1536419090.92,14716,18.25,74304.0,4.35,3.53,3.53,0,*7A
1536419092.11,14717,18.25,74304.8,4.39,3.63,3.63,0,*77
1536419093.34,14718,18.25,74308.5,4.35,3.63,3.71,0,*77
1536419094.56,14719,18.25,74306.8,4.35,3.93,4.01,0,*79
1536419095.79,14720,18.25,74308.8,4.35,4.05,4.11,0,*7A
1536419097.01,14721,18.31,74314.3,4.39,4.05,4.11,0,*77
1536419098.21,14722,18.31,74314.0,4.39,4.23,4.23,0,*71
1536419099.42,14723,18.25,74310.5,4.39,3.89,3.89,0,*70
1536419100.67,14724,18.25,74314.0,4.35,3.67,3.71,0,*7C
1536419101.9,14725,18.25,74312.8,4.39,3.71,3.81,0,*79
1536419103.11,14726,18.25,74310.8,4.39,3.89,3.89,0,*75
1536419104.32,14727,18.31,74314.3,4.39,3.93,3.93,0,*74
1536419105.52,14728,18.25,74310.8,4.39,3.93,3.93,0,*7B
1536419106.78,14729,18.25,74312.3,4.39,3.67,3.71,0,*7D
1536419108.03,14730,18.25,74308.8,4.35,3.71,3.71,0,*7E
1536419109.24,14731,18.31,74310.0,4.35,3.93,3.89,0,*74
1536419110.49,14732,18.31,74306.8,4.39,4.05,4.01,0,*74
1536419111.75,14733,18.25,74304.3,4.39,4.05,4.05,0,*71
1536419112.99,14734,18.25,74306.3,4.39,4.01,4.05,0,*72
1536419114.25,14735,18.31,74308.5,4.39,4.05,4.05,0,*77
1536419115.45,14736,18.31,74306.5,4.39,4.11,4.23,0,*75
1536419116.65,14737,18.31,74308.5,4.39,4.23,4.23,0,*75
1536419117.85,14738,18.31,74308.5,4.39,4.11,4.15,0,*7E
1536419119.05,14739,18.31,74304.0,4.39,4.15,4.11,0,*7F
1536419120.25,14740,18.25,74300.0,4.39,4.15,4.27,0,*74
1536419121.45,14741,18.25,74298.0,4.39,4.15,4.15,0,*74
1536419122.65,14742,18.31,74296.8,4.39,4.15,4.23,0,*72
1536419123.85,14743,18.25,74296.0,4.39,4.23,4.23,0,*76
1536419125.05,14744,18.31,74296.8,4.39,4.11,4.11,0,*71
1536419126.25,14745,18.25,74302.0,4.39,4.15,4.15,0,*70
1536419127.44,14746,18.31,74302.5,4.39,4.23,4.27,0,*77
1536419128.62,14747,18.31,74306.3,4.41,4.27,4.15,0,*7C
1536419129.82,14748,18.31,74304.5,4.43,4.11,4.19,0,*78
1536419130.99,14749,18.31,74306.0,4.41,4.19,4.19,0,*73
1536419132.19,14750,18.25,74302.5,4.43,4.11,4.11,0,*79
1536419133.39,14751,18.31,74304.3,4.43,4.11,4.11,0,*78
1536419134.63,14752,18.25,74306.8,4.43,4.01,3.97,0,*73
1536419135.88,14753,18.31,74308.8,4.43,3.97,3.97,0,*7A
1536419137.08,14754,18.25,74306.0,4.43,4.07,4.11,0,*7A
1536419138.28,14755,18.31,74306.3,4.41,4.27,4.31,0,*79
1536419139.48,14756,18.25,74300.8,4.43,4.23,4.23,0,*7F
1536419140.66,14757,18.25,74300.8,4.41,4.07,4.15,0,*7F
1536419141.86,14758,18.31,74304.0,4.43,4.11,4.23,0,*70
1536419143.11,14759,18.25,74306.0,4.43,3.97,3.97,0,*70
1536419144.33,14760,18.25,74304.3,4.43,3.85,3.79,0,*79
1536419145.56,14761,18.31,74304.0,4.41,3.75,3.75,0,*79
1536419146.8,14762,18.25,74304.5,4.41,3.75,3.71,0,*7E
1536419148.0,14763,18.31,74304.8,4.43,3.89,3.89,0,*79
1536419149.25,14764,18.25,74304.8,4.43,4.01,4.01,0,*7E
1536419150.47,14765,18.31,74310.8,4.43,4.01,4.07,0,*79
1536419151.67,14766,18.31,74310.0,4.43,4.19,4.23,0,*75
1536419152.84,14767,18.25,74308.3,4.41,4.15,4.27,0,*7E
1536419154.1,14768,18.31,74308.8,4.43,4.31,4.31,0,*72
1536419155.27,14769,18.31,74310.8,4.41,4.19,4.27,0,*7C
1536419156.47,14770,18.25,74304.5,4.43,4.19,4.19,0,*7B
1536419157.72,14771,18.31,74312.3,4.43,4.31,4.31,0,*7A
1536419158.9,14772,18.25,74304.3,4.41,4.27,4.27,0,*7B
1536419160.1,14773,18.31,74308.0,4.41,4.05,4.07,0,*78
1536419161.31,14774,18.31,74308.5,4.43,4.07,4.07,0,*7F
1536419162.51,14775,18.25,74306.5,4.43,4.11,4.11,0,*7E
1536419163.71,14776,18.25,74306.5,4.43,4.07,4.07,0,*7D
1536419164.91,14777,18.31,74310.0,4.43,4.11,4.11,0,*7C
1536419166.16,14778,18.25,74308.0,4.43,3.97,3.97,0,*73
1536419167.41,14779,18.25,74306.3,4.43,3.79,3.79,0,*72
1536419168.66,14780,18.25,74310.0,4.43,3.75,3.79,0,*78
1536419169.89,14781,18.31,74310.5,4.41,3.67,3.71,0,*70
1536419171.09,14782,18.25,74310.3,4.43,3.59,3.59,0,*76
1536419172.26,14783,18.31,74308.5,4.41,3.55,3.59,0,*79
1536419173.43,14784,18.31,74308.5,4.41,3.55,3.55,0,*72
1536419174.66,14785,18.25,74304.8,4.41,3.67,3.75,0,*70
1536419175.91,14786,18.25,74304.3,4.39,3.33,3.33,0,*7F
1536419177.16,14787,18.25,74304.0,4.39,3.33,3.41,0,*7B
1536419178.36,14788,18.25,74300.8,4.35,3.63,3.63,0,*7D
1536419179.62,14789,18.31,74300.3,4.39,3.67,3.71,0,*77
1536419180.81,14790,18.25,74292.3,4.35,3.55,3.55,0,*74
1536419182.0,14791,18.31,74298.8,4.35,3.63,3.63,0,*75
1536419183.21,14792,18.31,74298.5,4.35,3.81,3.81,0,*76
1536419184.43,14793,18.25,74300.3,4.35,4.05,4.11,0,*72
1536419185.63,14794,18.31,74296.0,4.35,4.11,4.15,0,*74
1536419186.83,14795,18.31,74310.0,4.39,4.11,4.11,0,*7D
1536419188.08,14796,18.31,74308.0,4.35,3.79,3.79,0,*72
1536419189.31,14797,18.25,74304.3,4.39,3.79,3.81,0,*78
1536419190.52,14798,18.31,74304.0,4.39,3.81,3.81,0,*70
1536419191.76,14799,18.25,74302.5,4.39,4.01,4.01,0,*71
1536419192.96,14800,18.31,74306.0,4.39,4.23,4.23,0,*7E
1536419194.16,14801,18.31,74300.8,4.39,4.23,4.27,0,*7B
1536419195.36,14802,18.31,74302.3,4.39,4.27,4.23,0,*78
1536419196.56,14803,18.31,74304.5,4.39,4.27,4.23,0,*79
1536419197.76,14804,18.31,74300.5,4.39,4.15,4.23,0,*7F
1536419198.93,14805,18.25,74300.8,4.41,4.19,4.19,0,*74
1536419200.13,14806,18.31,74300.3,4.41,4.31,4.27,0,*70
1536419201.31,14807,18.25,74296.3,4.41,4.27,4.27,0,*76
1536419202.51,14808,18.31,74292.0,4.41,3.93,4.05,0,*71
1536419203.72,14809,18.31,74288.0,4.39,3.89,3.89,0,*77
1536419204.96,14810,18.31,74296.0,4.39,4.01,4.01,0,*7F
1536419206.17,14811,18.25,74306.5,4.39,4.11,4.15,0,*7A
1536419207.41,14812,18.25,74296.8,4.39,4.01,4.01,0,*7D
1536419208.64,14813,18.31,74300.8,4.39,3.79,3.81,0,*7B
1536419209.84,14814,18.25,74298.0,4.39,3.81,3.93,0,*78
1536419211.07,14815,18.31,74302.0,4.39,3.93,4.01,0,*76
1536419212.31,14816,18.31,74306.5,4.39,4.01,4.01,0,*79
1536419213.5,14817,18.31,74304.0,4.41,4.07,4.07,0,*77
1536419214.67,14818,18.25,74300.8,4.41,3.93,3.85,0,*7F
1536419215.87,14819,18.31,74304.0,4.41,3.97,4.07,0,*77
1536419217.12,14820,18.31,74304.8,4.43,3.97,4.01,0,*79
1536419218.29,14821,18.25,74300.8,4.41,3.81,3.85,0,*76
1536419219.5,14822,18.25,74302.0,4.39,3.93,3.93,0,*7E
1536419220.72,14823,18.25,74302.3,4.39,4.01,3.93,0,*73
1536419221.9,14824,18.25,74302.8,4.41,4.15,4.15,0,*77
1536419223.08,14825,18.31,74304.0,4.41,4.15,4.15,0,*76
1536419224.28,14826,18.31,74304.0,4.41,3.93,3.97,0,*71
1536419225.46,14827,18.25,74302.3,4.41,4.07,4.07,0,*74
1536419226.64,14828,18.25,74302.8,4.41,4.07,4.15,0,*78
1536419227.82,14829,18.25,74304.8,4.41,4.15,4.07,0,*79
1536419229.0,14830,18.31,74306.3,4.41,4.15,4.19,0,*7E
1536419230.19,14831,18.31,74304.8,4.43,4.23,4.23,0,*71
1536419231.43,14832,18.31,74304.3,4.41,4.31,4.31,0,*70
1536419232.6,14833,18.25,74304.5,4.41,4.19,4.27,0,*7C
1536419233.77,14834,18.25,74304.0,4.41,4.19,4.19,0,*76
1536419234.99,14835,18.25,74304.8,4.43,4.23,4.31,0,*76
1536419236.22,14836,18.31,74304.0,4.43,4.23,4.31,0,*75
1536419237.48,14837,18.31,74306.3,4.43,4.31,4.31,0,*77
1536419238.68,14838,18.31,74306.0,4.43,4.33,4.33,0,*78
1536419239.89,14839,18.31,74306.8,4.43,4.33,4.33,0,*79
1536419241.09,14840,18.25,74306.5,4.43,4.33,4.33,0,*77
1536419242.35,14841,18.25,74306.3,4.43,4.31,4.31,0,*76
1536419243.55,14842,18.31,74308.5,4.45,4.23,4.31,0,*70
1536419244.73,14843,18.31,74306.0,4.45,4.07,4.07,0,*72
1536419245.98,14844,18.31,74308.3,4.43,4.01,4.01,0,*73
1536419247.18,14845,18.31,74308.5,4.43,4.07,4.11,0,*75
1536419248.37,14846,18.31,74310.0,4.43,4.19,4.19,0,*71
1536419249.59,14847,18.31,74310.5,4.43,3.97,3.85,0,*73
1536419250.84,14848,18.25,74304.8,4.43,3.79,3.79,0,*7F
1536419252.07,14849,18.25,74306.0,4.43,3.89,4.01,0,*79
1536419253.31,14850,18.25,74304.3,4.43,3.97,4.01,0,*7E
1536419254.56,14851,18.31,74308.5,4.43,3.97,4.01,0,*7F
1536419255.8,14852,18.31,74308.5,4.43,4.01,4.01,0,*74
1536419257.03,14853,18.31,74308.5,4.43,3.79,3.89,0,*7A
1536419258.26,14854,18.25,74304.0,4.43,3.89,4.01,0,*75
1536419259.44,14855,18.31,74304.8,4.45,3.89,3.85,0,*79
1536419260.68,14856,18.25,74304.0,4.43,4.01,4.01,0,*70
1536419261.91,14857,18.25,74306.8,4.43,4.01,4.07,0,*77
1536419263.13,14858,18.25,74306.3,4.43,4.07,4.01,0,*78
1536419264.36,14859,18.25,74306.5,4.41,4.05,4.05,0,*7D
1536419265.59,14860,18.31,74310.3,4.43,4.23,4.31,0,*76
1536419266.82,14861,18.31,74308.8,4.43,4.31,4.33,0,*76
1536419268.0,14862,18.25,74304.5,4.41,4.19,4.33,0,*7D
1536419269.21,14863,18.25,74304.5,4.43,4.11,4.07,0,*71
1536419270.45,14864,18.31,74304.8,4.43,3.97,3.97,0,*71
1536419271.68,14865,18.31,74300.8,4.43,3.79,3.85,0,*73
1536419272.9,14866,18.31,74300.5,4.43,3.89,3.97,0,*7C
1536419274.1,14867,18.25,74300.8,4.43,4.07,4.11,0,*75
1536419275.3,14868,18.31,74302.8,4.43,4.07,4.11,0,*7A
1536419276.5,14869,18.31,74304.8,4.43,4.07,4.11,0,*7B
1536419277.68,14870,18.25,74300.0,4.45,3.85,3.89,0,*7E
1536419278.9,14871,18.31,74296.0,4.43,3.85,3.79,0,*76
1536419280.13,14872,18.31,74290.3,4.43,4.01,4.07,0,*70
1536419281.33,14873,18.31,74302.3,4.43,4.11,4.07,0,*70
1536419282.56,14874,18.31,74310.8,4.41,4.05,4.05,0,*72
1536419283.76,14875,18.25,74300.0,4.43,4.19,4.11,0,*79
1536419284.99,14876,18.31,74296.3,4.43,3.79,3.89,0,*7D
1536419286.23,14877,18.31,74300.5,4.43,3.97,4.01,0,*7B
1536419287.43,14878,18.31,74302.3,4.41,3.97,4.07,0,*70
1536419288.63,14879,18.25,74302.0,4.43,4.19,4.23,0,*74
1536419289.86,14880,18.31,74300.3,4.43,4.23,4.31,0,*78
1536419291.12,14881,18.25,74302.8,4.43,4.31,4.31,0,*7A
1536419292.35,14882,18.25,74302.5,4.41,4.31,4.31,0,*7B
1536419293.58,14883,18.25,74304.0,4.43,4.31,4.33,0,*7A
1536419294.81,14884,18.31,74304.5,4.41,4.31,4.31,0,*7D
1536419296.02,14885,18.25,74306.5,4.43,4.33,4.33,0,*7E
1536419297.23,14886,18.31,74304.0,4.47,4.33,4.37,0,*7D
1536419298.43,14887,18.31,74306.3,4.47,4.37,4.45,0,*7D
1536419299.64,14888,18.31,74304.5,4.47,4.33,4.33,0,*77
1536419300.84,14889,18.31,74306.3,4.47,4.23,4.27,0,*72
1536419302.1,14890,18.25,74296.5,4.47,4.05,4.05,0,*7E
1536419303.27,14891,18.25,74302.5,4.45,4.19,4.23,0,*74
1536419304.49,14892,18.31,74306.0,4.47,4.37,4.37,0,*7C
1536419305.69,14893,18.25,74302.8,4.47,4.23,4.23,0,*7D
1536419306.92,14894,18.31,74300.3,4.47,4.27,4.31,0,*7D
1536419308.13,14895,18.25,74298.8,4.45,4.23,4.31,0,*7A
1536419309.33,14896,18.31,74302.0,4.47,4.23,4.37,0,*7D
1536419310.53,14897,18.31,74302.8,4.47,4.33,4.27,0,*7C
1536419311.74,14898,18.31,74302.8,4.47,4.11,4.11,0,*76
1536419312.94,14899,18.31,74304.0,4.47,4.15,4.15,0,*77
1536419314.12,14900,18.25,74296.8,4.45,4.11,4.11,0,*74
1536419315.29,14901,18.25,74294.5,4.45,4.19,4.23,0,*7C
1536419316.5,14902,18.25,74300.0,4.47,4.27,4.33,0,*71
1536419317.7,14903,18.31,74306.8,4.47,4.23,4.27,0,*71
1536419318.9,14904,18.31,74302.3,4.47,4.11,4.23,0,*73
1536419320.11,14905,18.31,74302.0,4.47,4.27,4.33,0,*76
1536419321.32,14906,18.31,74306.3,4.47,4.23,4.33,0,*71
1536419322.53,14907,18.31,74306.8,4.47,4.33,4.33,0,*71
1536419323.73,14908,18.25,74304.3,4.47,4.15,4.23,0,*7B
1536419324.91,14909,18.31,74304.0,4.49,4.11,4.15,0,*75
1536419326.14,14910,18.25,74300.8,4.49,4.05,4.01,0,*7D